"read_dt","SO2 (ppb)","flags","PMT voltage (V)","lamp voltage (V)","lamp intensity (Hz)","internal temp (C)","react chamber temp (C)","sample flow (l/min)","pres (mmHg)","SO2 bkg (ppb)","SO2 coefficient"
2015-09-17 00:00:00,2343E-3,5C000400,-0724,0824,12151,030.6,045.5,0.252,760.0,01.16,0.508
2015-09-17 00:01:00,1935E-3,5C000400,-0724,0823,12356,030.6,045.5,0.252,760.0,01.16,0.508
2015-09-17 00:02:00,1986E-3,5C000400,-0724,0824,12300,030.6,045.5,0.252,760.0,01.16,0.508
2015-09-17 00:03:00,2106E-3,5C000400,-0724,0824,12207,030.6,045.5,0.252,760.0,01.16,0.508
2015-09-17 00:04:00,1906E-3,5C000400,-0724,0823,12189,030.6,045.5,0.252,759.9,01.16,0.508
2015-09-17 00:05:00,2029E-3,5C000400,-0724,0823,12111,030.6,045.5,0.252,759.9,01.16,0.508
2015-09-17 00:06:00,2035E-3,5C000400,-0724,0824,12367,030.6,045.5,0.252,759.9,01.16,0.508
2015-09-17 00:07:00,2062E-3,5C000400,-0724,0824,12314,030.6,045.5,0.251,759.9,01.16,0.508
2015-09-17 00:08:00,2008E-3,5C000400,-0724,0823,12086,030.6,045.5,0.252,759.9,01.16,0.508
2015-09-17 00:09:00,2029E-3,5C000400,-0724,0824,12376,030.6,045.5,0.252,759.9,01.16,0.508
2015-09-17 00:10:00,2080E-3,5C000400,-0724,0824,12180,030.6,045.5,0.252,759.9,01.16,0.508
2015-09-17 00:11:00,2074E-3,5C000400,-0724,0824,12135,030.6,045.5,0.252,759.9,01.16,0.508
2015-09-17 00:12:00,1969E-3,5C000400,-0724,0824,12173,030.6,045.5,0.252,759.8,01.16,0.508
2015-09-17 00:13:00,2226E-3,5C000400,-0724,0824,12353,030.6,045.5,0.252,759.8,01.16,0.508
2015-09-17 00:14:00,2215E-3,5C000400,-0724,0823,12231,030.6,045.5,0.252,759.8,01.16,0.508
2015-09-17 00:15:00,2146E-3,5C000400,-0724,0824,12307,030.6,045.5,0.252,759.8,01.16,0.508
2015-09-17 00:16:00,2090E-3,5C000400,-0724,0824,12293,030.6,045.5,0.252,759.8,01.16,0.508
2015-09-17 00:17:00,2155E-3,5C000400,-0724,0824,12227,030.6,045.5,0.252,759.8,01.16,0.508
2015-09-17 00:18:00,2124E-3,5C000400,-0724,0824,12363,030.6,045.5,0.252,759.8,01.16,0.508
2015-09-17 00:19:00,2222E-3,5C000400,-0724,0823,12199,030.6,045.5,0.252,759.8,01.16,0.508
2015-09-17 00:20:00,2019E-3,5C000400,-0724,0823,12261,030.6,045.5,0.252,759.8,01.16,0.508
2015-09-17 00:21:00,2057E-3,5C000400,-0724,0824,12254,030.6,045.5,0.252,759.8,01.16,0.508
2015-09-17 00:22:00,2163E-3,5C000400,-0724,0824,12298,030.6,045.5,0.252,759.8,01.16,0.508
2015-09-17 00:23:00,2101E-3,5C000400,-0724,0824,12352,030.6,045.5,0.252,759.8,01.16,0.508
2015-09-17 00:24:00,2070E-3,5C000400,-0724,0823,12102,030.6,045.5,0.251,759.8,01.16,0.508
2015-09-17 00:25:00,2003E-3,5C000400,-0724,0823,12227,030.6,045.5,0.252,759.8,01.16,0.508
2015-09-17 00:26:00,2161E-3,5C000400,-0724,0824,12169,030.6,045.5,0.252,759.8,01.16,0.508
2015-09-17 00:27:00,2159E-3,5C000400,-0724,0824,12133,030.6,045.5,0.252,759.8,01.16,0.508
2015-09-17 00:28:00,2066E-3,5C000400,-0724,0824,12370,030.6,045.5,0.252,759.8,01.16,0.508
2015-09-17 00:29:00,2053E-3,5C000400,-0724,0824,12222,030.6,045.5,0.252,759.8,01.16,0.508
2015-09-17 00:30:00,2190E-3,5C000400,-0724,0824,12207,030.6,045.5,0.252,759.8,01.16,0.508
2015-09-17 00:31:00,2206E-3,5C000400,-0724,0824,12199,030.6,045.5,0.252,759.8,01.16,0.508
2015-09-17 00:32:00,2099E-3,5C000400,-0724,0823,12197,030.6,045.5,0.251,759.8,01.16,0.508
2015-09-17 00:33:00,2150E-3,5C000400,-0724,0824,12299,030.6,045.5,0.252,759.8,01.16,0.508
2015-09-17 00:34:00,2256E-3,5C000400,-0724,0823,12243,030.6,045.5,0.252,759.8,01.16,0.508
2015-09-17 00:35:00,2138E-3,5C000400,-0724,0824,12167,030.6,045.5,0.252,759.8,01.16,0.508
2015-09-17 00:36:00,2017E-3,5C000400,-0724,0823,12133,030.6,045.5,0.252,759.7,01.16,0.508
2015-09-17 00:37:00,2056E-3,5C000400,-0724,0824,12338,030.6,045.5,0.251,759.7,01.16,0.508
2015-09-17 00:38:00,2093E-3,5C000400,-0724,0824,12230,030.6,045.5,0.252,759.7,01.16,0.508
2015-09-17 00:39:00,2088E-3,5C000400,-0724,0823,12251,030.6,045.5,0.252,759.7,01.16,0.508
2015-09-17 00:40:00,2113E-3,5C000400,-0724,0824,12194,030.6,045.5,0.252,759.7,01.16,0.508
2015-09-17 00:41:00,2176E-3,5C000400,-0724,0823,12057,030.6,045.5,0.252,759.7,01.16,0.508
2015-09-17 00:42:00,2096E-3,5C000400,-0724,0824,12473,030.6,045.5,0.252,759.7,01.16,0.508
2015-09-17 00:43:00,2014E-3,5C000400,-0724,0824,12188,030.6,045.5,0.252,759.7,01.16,0.508
2015-09-17 00:44:00,2072E-3,5C000400,-0724,0825,12223,030.6,045.5,0.252,759.7,01.16,0.508
2015-09-17 00:45:00,2149E-3,5C000400,-0724,0823,12192,030.6,045.5,0.252,759.7,01.16,0.508
2015-09-17 00:46:00,2044E-3,5C000400,-0724,0824,12397,030.6,045.5,0.252,759.7,01.16,0.508
2015-09-17 00:47:00,2077E-3,5C000400,-0724,0824,12257,030.6,045.5,0.252,759.7,01.16,0.508
2015-09-17 00:48:00,2054E-3,5C000400,-0724,0824,12197,030.6,045.5,0.252,759.7,01.16,0.508
2015-09-17 00:49:00,2242E-3,5C000400,-0724,0824,12274,030.6,045.5,0.252,759.7,01.16,0.508
2015-09-17 00:50:00,2149E-3,5C000400,-0724,0824,12238,030.6,045.5,0.251,759.7,01.16,0.508
2015-09-17 00:51:00,2235E-3,5C000400,-0724,0824,12129,030.6,045.5,0.252,759.6,01.16,0.508
2015-09-17 00:52:00,2070E-3,5C000400,-0724,0824,12342,030.6,045.5,0.252,759.7,01.16,0.508
2015-09-17 00:53:00,2115E-3,5C000400,-0724,0824,12279,030.6,045.5,0.252,759.6,01.16,0.508
2015-09-17 00:54:00,1995E-3,5C000400,-0724,0824,12224,030.6,045.5,0.252,759.6,01.16,0.508
2015-09-17 00:55:00,2020E-3,5C000400,-0724,0824,12280,030.6,045.5,0.251,759.6,01.16,0.508
2015-09-17 00:56:00,2197E-3,5C000400,-0724,0825,12209,030.6,045.5,0.252,759.6,01.16,0.508
2015-09-17 00:57:00,2108E-3,5C000400,-0724,0824,12300,030.6,045.5,0.252,759.6,01.16,0.508
2015-09-17 00:58:00,2079E-3,5C000400,-0724,0825,12352,030.6,045.5,0.252,759.6,01.16,0.508
2015-09-17 00:59:00,2158E-3,5C000400,-0724,0824,12190,030.6,045.5,0.252,759.6,01.16,0.508
2015-09-17 01:00:00,2276E-3,5C000400,-0724,0824,12251,030.6,045.5,0.251,759.6,01.16,0.508
2015-09-17 01:01:00,2117E-3,5C000400,-0724,0823,12207,030.6,045.5,0.252,759.6,01.16,0.508
2015-09-17 01:02:00,2096E-3,5C000400,-0724,0823,12209,030.6,045.5,0.252,759.6,01.16,0.508
2015-09-17 01:03:00,2097E-3,5C000400,-0724,0823,12176,030.6,045.5,0.252,759.6,01.16,0.508
2015-09-17 01:04:00,2152E-3,5C000400,-0724,0824,12348,030.6,045.5,0.252,759.5,01.16,0.508
2015-09-17 01:05:00,2173E-3,5C000400,-0724,0823,12133,030.6,045.5,0.252,759.5,01.16,0.508
2015-09-17 01:06:00,2132E-3,5C000400,-0724,0824,12064,030.6,045.5,0.252,759.5,01.16,0.508
2015-09-17 01:07:00,2145E-3,5C000400,-0724,0824,12221,030.6,045.5,0.251,759.5,01.16,0.508
2015-09-17 01:08:00,2182E-3,5C000400,-0724,0824,12248,030.6,045.5,0.252,759.5,01.16,0.508
2015-09-17 01:09:00,1905E-3,5C000400,-0724,0823,12227,030.6,045.5,0.252,759.5,01.16,0.508
2015-09-17 01:10:00,2122E-3,5C000400,-0724,0824,12237,030.6,045.5,0.252,759.5,01.16,0.508
2015-09-17 01:11:00,1995E-3,5C000400,-0724,0824,12244,030.6,045.5,0.252,759.5,01.16,0.508
2015-09-17 01:12:00,2049E-3,5C000400,-0724,0824,12199,030.6,045.5,0.251,759.5,01.16,0.508
2015-09-17 01:13:00,2133E-3,5C000400,-0724,0824,12206,030.6,045.5,0.252,759.4,01.16,0.508
2015-09-17 01:14:00,2123E-3,5C000400,-0724,0824,12296,030.6,045.5,0.252,759.4,01.16,0.508
2015-09-17 01:15:00,2084E-3,5C000400,-0724,0823,12296,030.6,045.5,0.252,759.4,01.16,0.508
2015-09-17 01:16:00,2182E-3,5C000400,-0724,0825,12181,030.6,045.5,0.252,759.4,01.16,0.508
2015-09-17 01:17:00,2054E-3,5C000400,-0724,0823,12239,030.6,045.5,0.252,759.5,01.16,0.508
2015-09-17 01:18:00,2028E-3,5C000400,-0724,0825,12167,030.6,045.5,0.252,759.5,01.16,0.508
2015-09-17 01:19:00,2096E-3,5C000400,-0724,0824,12306,030.6,045.5,0.252,759.5,01.16,0.508
2015-09-17 01:20:00,2102E-3,5C000400,-0724,0824,12300,030.6,045.5,0.251,759.5,01.16,0.508
2015-09-17 01:21:00,2034E-3,5C000400,-0724,0824,12262,030.6,045.5,0.252,759.4,01.16,0.508
2015-09-17 01:22:00,1972E-3,5C000400,-0724,0823,12266,030.6,045.5,0.252,759.4,01.16,0.508
2015-09-17 01:23:00,2149E-3,5C000400,-0724,0824,12280,030.7,045.5,0.252,759.4,01.16,0.508
2015-09-17 01:24:00,2070E-3,5C000400,-0724,0824,12238,030.6,045.5,0.252,759.4,01.16,0.508
2015-09-17 01:25:00,2096E-3,5C000400,-0724,0824,12220,030.6,045.5,0.251,759.3,01.16,0.508
2015-09-17 01:26:00,2171E-3,5C000400,-0724,0825,12240,030.6,045.5,0.252,759.3,01.16,0.508
2015-09-17 01:27:00,2085E-3,5C000400,-0724,0824,12281,030.6,045.5,0.252,759.3,01.16,0.508
2015-09-17 01:28:00,1967E-3,5C000400,-0724,0824,12237,030.6,045.5,0.252,759.3,01.16,0.508
2015-09-17 01:29:00,2158E-3,5C000400,-0724,0824,12356,030.7,045.5,0.252,759.3,01.16,0.508
2015-09-17 01:30:00,2079E-3,5C000400,-0724,0824,12403,030.6,045.5,0.251,759.3,01.16,0.508
2015-09-17 01:31:00,2065E-3,5C000400,-0724,0825,12102,030.7,045.5,0.252,759.3,01.16,0.508
2015-09-17 01:32:00,2072E-3,5C000400,-0724,0824,12352,030.7,045.5,0.252,759.3,01.16,0.508
2015-09-17 01:33:00,2122E-3,5C000400,-0724,0824,12204,030.7,045.5,0.252,759.3,01.16,0.508
2015-09-17 01:34:00,2104E-3,5C000400,-0724,0824,12226,030.6,045.5,0.252,759.3,01.16,0.508
2015-09-17 01:35:00,2067E-3,5C000400,-0724,0825,12364,030.7,045.5,0.252,759.3,01.16,0.508
2015-09-17 01:36:00,2116E-3,5C000400,-0724,0824,12254,030.6,045.5,0.252,759.3,01.16,0.508
2015-09-17 01:37:00,2101E-3,5C000400,-0724,0825,12155,030.6,045.5,0.251,759.3,01.16,0.508
2015-09-17 01:38:00,2168E-3,5C000400,-0724,0824,12227,030.7,045.5,0.252,759.3,01.16,0.508
2015-09-17 01:39:00,2191E-3,5C000400,-0724,0824,12325,030.7,045.5,0.252,759.3,01.16,0.508
2015-09-17 01:40:00,2099E-3,5C000400,-0724,0824,12141,030.7,045.5,0.252,759.3,01.16,0.508
2015-09-17 01:41:00,2041E-3,5C000400,-0724,0825,12313,030.6,045.5,0.252,759.3,01.16,0.508
2015-09-17 01:42:00,2247E-3,5C000400,-0724,0823,12176,030.7,045.5,0.251,759.2,01.16,0.508
2015-09-17 01:43:00,2194E-3,5C000400,-0724,0824,12318,030.7,045.5,0.252,759.2,01.16,0.508
2015-09-17 01:44:00,2104E-3,5C000400,-0724,0824,12089,030.7,045.5,0.252,759.2,01.16,0.508
2015-09-17 01:45:00,2079E-3,5C000400,-0724,0824,12170,030.7,045.5,0.252,759.2,01.16,0.508
2015-09-17 01:46:00,2021E-3,5C000400,-0724,0824,12295,030.7,045.5,0.252,759.2,01.16,0.508
2015-09-17 01:47:00,2169E-3,5C000400,-0724,0824,12348,030.7,045.5,0.251,759.2,01.16,0.508
2015-09-17 01:48:00,2197E-3,5C000400,-0724,0824,12212,030.7,045.5,0.252,759.2,01.16,0.508
2015-09-17 01:49:00,2177E-3,5C000400,-0724,0823,12288,030.7,045.5,0.252,759.2,01.16,0.508
2015-09-17 01:50:00,2052E-3,5C000400,-0724,0824,12238,030.7,045.5,0.252,759.2,01.16,0.508
2015-09-17 01:51:00,2139E-3,5C000400,-0724,0824,12182,030.7,045.5,0.252,759.2,01.16,0.508
2015-09-17 01:52:00,2096E-3,5C000400,-0724,0824,12357,030.7,045.5,0.251,759.2,01.16,0.508
2015-09-17 01:53:00,2112E-3,5C000400,-0724,0824,12031,030.7,045.5,0.252,759.2,01.16,0.508
2015-09-17 01:54:00,2066E-3,5C000400,-0724,0825,12216,030.7,045.5,0.252,759.2,01.16,0.508
2015-09-17 01:55:00,2038E-3,5C000400,-0724,0824,12252,030.7,045.5,0.252,759.2,01.16,0.508
2015-09-17 01:56:00,2213E-3,5C000400,-0724,0825,12243,030.7,045.5,0.252,759.2,01.16,0.508
2015-09-17 01:57:00,2172E-3,5C000400,-0724,0824,12340,030.7,045.5,0.251,759.2,01.16,0.508
2015-09-17 01:58:00,2090E-3,5C000400,-0724,0825,12352,030.7,045.6,0.252,759.2,01.16,0.508
2015-09-17 01:59:00,2098E-3,5C000400,-0724,0824,12084,030.7,045.5,0.251,759.2,01.16,0.508
2015-09-17 02:00:00,2087E-3,5C000400,-0724,0824,12284,030.7,045.5,0.252,759.2,01.16,0.508
2015-09-17 02:01:00,2095E-3,5C000400,-0724,0823,12229,030.7,045.5,0.252,759.2,01.16,0.508
2015-09-17 02:02:00,2038E-3,5C000400,-0724,0824,12185,030.7,045.5,0.251,759.2,01.16,0.508
2015-09-17 02:03:00,2132E-3,5C000400,-0724,0823,12399,030.7,045.5,0.252,759.1,01.16,0.508
2015-09-17 02:04:00,2055E-3,5C000400,-0724,0824,12134,030.7,045.5,0.251,759.1,01.16,0.508
2015-09-17 02:05:00,2044E-3,5C000400,-0724,0824,12355,030.7,045.5,0.252,759.1,01.16,0.508
2015-09-17 02:06:00,2113E-3,5C000400,-0724,0824,12241,030.7,045.5,0.252,759.1,01.16,0.508
2015-09-17 02:07:00,2089E-3,5C000400,-0724,0824,12365,030.7,045.5,0.251,759.1,01.16,0.508
2015-09-17 02:08:00,1935E-3,5C000400,-0724,0824,12219,030.7,045.5,0.252,759.1,01.16,0.508
2015-09-17 02:09:00,2153E-3,5C000400,-0724,0824,12159,030.7,045.5,0.251,759.1,01.16,0.508
2015-09-17 02:10:00,2220E-3,5C000400,-0724,0824,12119,030.7,045.5,0.252,759.1,01.16,0.508
2015-09-17 02:11:00,2213E-3,5C000400,-0724,0824,12053,030.7,045.5,0.252,759.1,01.16,0.508
2015-09-17 02:12:00,2165E-3,5C000400,-0724,0824,12290,030.7,045.5,0.251,759.1,01.16,0.508
2015-09-17 02:13:00,2144E-3,5C000400,-0724,0824,12278,030.7,045.5,0.252,759.1,01.16,0.508
2015-09-17 02:14:00,2173E-3,5C000400,-0724,0824,12256,030.7,045.5,0.252,759.0,01.16,0.508
2015-09-17 02:15:00,2081E-3,5C000400,-0724,0825,12324,030.7,045.5,0.252,759.1,01.16,0.508
2015-09-17 02:16:00,2124E-3,5C000400,-0724,0823,12252,030.7,045.5,0.252,759.0,01.16,0.508
2015-09-17 02:17:00,2003E-3,5C000400,-0724,0824,12155,030.7,045.5,0.252,759.1,01.16,0.508
2015-09-17 02:18:00,2023E-3,5C000400,-0724,0824,12217,030.7,045.5,0.252,759.1,01.16,0.508
2015-09-17 02:19:00,2187E-3,5C000400,-0724,0825,12308,030.7,045.5,0.252,759.1,01.16,0.508
2015-09-17 02:20:00,2097E-3,5C000400,-0724,0824,12190,030.7,045.5,0.251,759.1,01.16,0.508
2015-09-17 02:21:00,2152E-3,5C000400,-0724,0824,12247,030.7,045.5,0.252,759.1,01.16,0.508
2015-09-17 02:22:00,2004E-3,5C000400,-0724,0823,12337,030.7,045.5,0.252,759.1,01.16,0.508
2015-09-17 02:23:00,2086E-3,5C000400,-0724,0824,12377,030.8,045.5,0.251,759.1,01.16,0.508
2015-09-17 02:24:00,2141E-3,5C000400,-0724,0824,12268,030.7,045.5,0.252,759.1,01.16,0.508
2015-09-17 02:25:00,2141E-3,5C000400,-0724,0824,12247,030.7,045.5,0.252,759.1,01.16,0.508
2015-09-17 02:26:00,2064E-3,5C000400,-0724,0824,12347,030.7,045.5,0.252,759.1,01.16,0.508
2015-09-17 02:27:00,2054E-3,5C000400,-0724,0825,12284,030.7,045.5,0.252,759.1,01.16,0.508
2015-09-17 02:28:00,2165E-3,5C000400,-0724,0824,12182,030.7,045.5,0.251,759.1,01.16,0.508
2015-09-17 02:29:00,2035E-3,5C000400,-0724,0824,12184,030.8,045.5,0.252,759.1,01.16,0.508
2015-09-17 02:30:00,2038E-3,5C000400,-0724,0824,12204,030.8,045.5,0.252,759.1,01.16,0.508
2015-09-17 02:31:00,2060E-3,5C000400,-0724,0824,12200,030.7,045.5,0.251,759.1,01.16,0.508
2015-09-17 02:32:00,2158E-3,5C000400,-0724,0824,12228,030.8,045.5,0.252,759.0,01.16,0.508
2015-09-17 02:33:00,2124E-3,5C000400,-0724,0824,12241,030.7,045.5,0.252,759.0,01.16,0.508
2015-09-17 02:34:00,2053E-3,5C000400,-0724,0824,12302,030.7,045.5,0.252,759.1,01.16,0.508
2015-09-17 02:35:00,2222E-3,5C000400,-0724,0824,12257,030.8,045.5,0.252,759.1,01.16,0.508
2015-09-17 02:36:00,1953E-3,5C000400,-0724,0824,12093,030.8,045.5,0.251,759.1,01.16,0.508
2015-09-17 02:37:00,1962E-3,5C000400,-0724,0824,12160,030.8,045.5,0.252,759.1,01.16,0.508
2015-09-17 02:38:00,2127E-3,5C000400,-0724,0824,12314,030.7,045.5,0.252,759.0,01.16,0.508
2015-09-17 02:39:00,2141E-3,5C000400,-0724,0824,12212,030.8,045.5,0.251,759.0,01.16,0.508
2015-09-17 02:40:00,2176E-3,5C000400,-0724,0823,12108,030.8,045.5,0.252,759.0,01.16,0.508
2015-09-17 02:41:00,2075E-3,5C000400,-0724,0823,12097,030.8,045.5,0.252,759.0,01.16,0.508
2015-09-17 02:42:00,2124E-3,5C000400,-0724,0824,12124,030.8,045.5,0.251,759.0,01.16,0.508
2015-09-17 02:43:00,2089E-3,5C000400,-0724,0824,12264,030.8,045.5,0.252,759.0,01.16,0.508
2015-09-17 02:44:00,2102E-3,5C000400,-0724,0824,12341,030.8,045.5,0.251,759.0,01.16,0.508
2015-09-17 02:45:00,2121E-3,5C000400,-0724,0823,12239,030.8,045.5,0.252,759.0,01.16,0.508
2015-09-17 02:46:00,2168E-3,5C000400,-0724,0824,12233,030.8,045.5,0.252,759.0,01.16,0.508
2015-09-17 02:47:00,2080E-3,5C000400,-0724,0824,12220,030.8,045.5,0.251,759.0,01.16,0.508
2015-09-17 02:48:00,2080E-3,5C000400,-0724,0824,12340,030.8,045.5,0.252,759.0,01.16,0.508
2015-09-17 02:49:00,1986E-3,5C000400,-0724,0824,12251,030.8,045.5,0.252,759.0,01.16,0.508
2015-09-17 02:50:00,2063E-3,5C000400,-0724,0825,12218,030.8,045.5,0.251,759.0,01.16,0.508
2015-09-17 02:51:00,2049E-3,5C000400,-0724,0823,12278,030.8,045.5,0.252,759.0,01.16,0.508
2015-09-17 02:52:00,2148E-3,5C000400,-0724,0824,12094,030.8,045.5,0.252,759.0,01.16,0.508
2015-09-17 02:53:00,2103E-3,5C000400,-0724,0824,12322,030.8,045.5,0.251,759.0,01.16,0.508
2015-09-17 02:54:00,1993E-3,5C000400,-0724,0824,12233,030.8,045.5,0.252,759.0,01.16,0.508
2015-09-17 02:55:00,2092E-3,5C000400,-0724,0824,12297,030.8,045.5,0.252,759.0,01.16,0.508
2015-09-17 02:56:00,1992E-3,5C000400,-0724,0825,12188,030.8,045.5,0.251,759.0,01.16,0.508
2015-09-17 02:57:00,2160E-3,5C000400,-0724,0824,12258,030.8,045.5,0.252,759.0,01.16,0.508
2015-09-17 02:58:00,2176E-3,5C000400,-0724,0824,12269,030.8,045.5,0.252,759.0,01.16,0.508
2015-09-17 02:59:00,2167E-3,5C000400,-0724,0824,12194,030.8,045.5,0.251,759.0,01.16,0.508
2015-09-17 03:00:00,2127E-3,5C000400,-0724,0824,12270,030.8,045.5,0.252,759.0,01.16,0.508
2015-09-17 03:01:00,2133E-3,5C000400,-0724,0824,12233,030.8,045.5,0.251,759.0,01.16,0.508
2015-09-17 03:02:00,2217E-3,5C000400,-0724,0824,12247,030.8,045.5,0.251,759.0,01.16,0.508
2015-09-17 03:03:00,2152E-3,5C000400,-0724,0824,12208,030.8,045.5,0.252,758.9,01.16,0.508
2015-09-17 03:04:00,2123E-3,5C000400,-0724,0824,12348,030.8,045.5,0.252,758.9,01.16,0.508
2015-09-17 03:05:00,2008E-3,5C000400,-0724,0824,12153,030.8,045.5,0.251,758.9,01.16,0.508
2015-09-17 03:06:00,2069E-3,5C000400,-0724,0824,12072,030.8,045.5,0.252,758.9,01.16,0.508
2015-09-17 03:07:00,2125E-3,5C000400,-0724,0824,12066,030.8,045.5,0.251,758.9,01.16,0.508
2015-09-17 03:08:00,1928E-3,5C000400,-0724,0823,12397,030.8,045.5,0.251,758.9,01.16,0.508
2015-09-17 03:09:00,2116E-3,5C000400,-0724,0824,12283,030.8,045.5,0.252,758.9,01.16,0.508
2015-09-17 03:10:00,2102E-3,5C000400,-0724,0825,12407,030.8,045.5,0.251,758.9,01.16,0.508
2015-09-17 03:11:00,2240E-3,5C000400,-0724,0824,12268,030.8,045.5,0.251,758.9,01.16,0.508
2015-09-17 03:12:00,2197E-3,5C000400,-0724,0823,12321,030.8,045.5,0.252,758.9,01.16,0.508
2015-09-17 03:13:00,2206E-3,5C000400,-0724,0823,12170,030.8,045.5,0.252,758.8,01.16,0.508
2015-09-17 03:14:00,2083E-3,5C000400,-0724,0824,12279,030.8,045.5,0.251,758.8,01.16,0.508
2015-09-17 03:15:00,2041E-3,5C000400,-0724,0824,12210,030.8,045.5,0.252,758.8,01.16,0.508
2015-09-17 03:16:00,2028E-3,5C000400,-0724,0823,12235,030.8,045.5,0.252,758.8,01.16,0.508
2015-09-17 03:17:00,2090E-3,5C000400,-0724,0824,12159,030.8,045.5,0.251,758.9,01.16,0.508
2015-09-17 03:18:00,2151E-3,5C000400,-0724,0824,12305,030.8,045.5,0.251,758.9,01.16,0.508
2015-09-17 03:19:00,2135E-3,5C000400,-0724,0823,12153,030.8,045.5,0.252,758.8,01.16,0.508
2015-09-17 03:20:00,2174E-3,5C000400,-0724,0824,12416,030.9,045.5,0.251,758.8,01.16,0.508
2015-09-17 03:21:00,2161E-3,5C000400,-0724,0824,12167,030.8,045.5,0.251,758.8,01.16,0.508
2015-09-17 03:22:00,2179E-3,5C000400,-0724,0824,12338,030.9,045.5,0.252,758.8,01.16,0.508
2015-09-17 03:23:00,2104E-3,5C000400,-0724,0824,12234,030.8,045.5,0.251,758.8,01.16,0.508
2015-09-17 03:24:00,2221E-3,5C000400,-0724,0824,12282,030.9,045.5,0.251,758.8,01.16,0.508
2015-09-17 03:25:00,2013E-3,5C000400,-0724,0824,12269,030.9,045.5,0.252,758.8,01.16,0.508
2015-09-17 03:26:00,2261E-3,5C000400,-0724,0824,12341,030.9,045.5,0.251,758.7,01.16,0.508
2015-09-17 03:27:00,2208E-3,5C000400,-0724,0824,12259,030.8,045.5,0.251,758.7,01.16,0.508
2015-09-17 03:28:00,2170E-3,5C000400,-0724,0824,12219,030.9,045.5,0.252,758.7,01.16,0.508
2015-09-17 03:29:00,2092E-3,5C000400,-0724,0824,12252,030.9,045.5,0.251,758.7,01.16,0.508
2015-09-17 03:30:00,2206E-3,5C000400,-0724,0824,12227,030.9,045.5,0.251,758.7,01.16,0.508
2015-09-17 03:31:00,2139E-3,5C000400,-0724,0824,12245,030.8,045.5,0.252,758.7,01.16,0.508
2015-09-17 03:32:00,2200E-3,5C000400,-0724,0824,12335,030.9,045.5,0.251,758.7,01.16,0.508
2015-09-17 03:33:00,2056E-3,5C000400,-0724,0825,12266,030.8,045.5,0.251,758.7,01.16,0.508
2015-09-17 03:34:00,1950E-3,5C000400,-0724,0823,12335,030.9,045.5,0.252,758.7,01.16,0.508
2015-09-17 03:35:00,2113E-3,5C000400,-0724,0824,12199,030.9,045.5,0.251,758.7,01.16,0.508
2015-09-17 03:36:00,2077E-3,5C000400,-0724,0825,12256,030.9,045.5,0.251,758.7,01.16,0.508
2015-09-17 03:37:00,2142E-3,5C000400,-0724,0824,12270,030.9,045.5,0.252,758.7,01.16,0.508
2015-09-17 03:38:00,2139E-3,5C000400,-0724,0824,12356,030.9,045.5,0.251,758.7,01.16,0.508
2015-09-17 03:39:00,2082E-3,5C000400,-0724,0825,12220,030.9,045.5,0.251,758.7,01.16,0.508
2015-09-17 03:40:00,2194E-3,5C000400,-0724,0824,12256,030.9,045.5,0.252,758.7,01.16,0.508
2015-09-17 03:41:00,2123E-3,5C000400,-0724,0824,12225,030.9,045.5,0.251,758.7,01.16,0.508
2015-09-17 03:42:00,2074E-3,5C000400,-0724,0824,12286,030.9,045.5,0.251,758.6,01.16,0.508
2015-09-17 03:43:00,2214E-3,5C000400,-0724,0823,12242,030.9,045.5,0.252,758.7,01.16,0.508
2015-09-17 03:44:00,2246E-3,5C000400,-0724,0823,12186,030.9,045.5,0.251,758.7,01.16,0.508
2015-09-17 03:45:00,2264E-3,5C000400,-0724,0824,12218,030.9,045.5,0.251,758.6,01.16,0.508
2015-09-17 03:46:00,2159E-3,5C000400,-0724,0824,12342,030.9,045.5,0.251,758.7,01.16,0.508
2015-09-17 03:47:00,2208E-3,5C000400,-0724,0824,12209,030.9,045.5,0.251,758.6,01.16,0.508
2015-09-17 03:48:00,2027E-3,5C000400,-0724,0823,12277,030.9,045.5,0.251,758.6,01.16,0.508
2015-09-17 03:49:00,2184E-3,5C000400,-0724,0823,12179,030.8,045.5,0.251,758.7,01.16,0.508
2015-09-17 03:50:00,2136E-3,5C000400,-0724,0824,12340,030.7,045.5,0.252,758.6,01.16,0.508
2015-09-17 03:51:00,2229E-3,5C000400,-0724,0824,12394,030.6,045.5,0.251,758.7,01.16,0.508
2015-09-17 03:52:00,2076E-3,5C000400,-0724,0824,12171,030.4,045.5,0.251,758.7,01.16,0.508
2015-09-17 03:53:00,2259E-3,5C000400,-0724,0823,12189,030.3,045.5,0.251,758.7,01.16,0.508
2015-09-17 03:54:00,2195E-3,5C000400,-0724,0823,11971,030.2,045.5,0.251,758.6,01.16,0.508
2015-09-17 03:55:00,2127E-3,5C000400,-0724,0824,12193,030.1,045.5,0.252,758.7,01.16,0.508
2015-09-17 03:56:00,1999E-3,5C000400,-0724,0823,12251,030.0,045.5,0.252,758.6,01.16,0.508
2015-09-17 03:57:00,2150E-3,5C000400,-0724,0823,12175,030.1,045.5,0.252,758.6,01.16,0.508
2015-09-17 03:58:00,2102E-3,5C000400,-0724,0823,12297,030.1,045.5,0.252,758.6,01.16,0.508
2015-09-17 03:59:00,2202E-3,5C000400,-0724,0823,12194,030.1,045.5,0.252,758.6,01.16,0.508
2015-09-17 04:00:00,2066E-3,5C000400,-0724,0824,12305,030.1,045.5,0.252,758.6,01.16,0.508
2015-09-17 04:01:00,2367E-3,5C000400,-0724,0823,12150,030.2,045.5,0.252,758.6,01.16,0.508
2015-09-17 04:02:00,2176E-3,5C000400,-0724,0824,12269,030.2,045.5,0.252,758.6,01.16,0.508
2015-09-17 04:03:00,2174E-3,5C000400,-0724,0823,12190,030.2,045.5,0.252,758.6,01.16,0.508
2015-09-17 04:04:00,2133E-3,5C000400,-0724,0824,12225,030.3,045.5,0.252,758.6,01.16,0.508
2015-09-17 04:05:00,2027E-3,5C000400,-0724,0823,12167,030.3,045.5,0.253,758.6,01.16,0.508
2015-09-17 04:06:00,2231E-3,5C000400,-0724,0824,12305,030.3,045.5,0.252,758.5,01.16,0.508
2015-09-17 04:07:00,2133E-3,5C000400,-0724,0824,12235,030.3,045.5,0.253,758.5,01.16,0.508
2015-09-17 04:08:00,2098E-3,5C000400,-0724,0824,12224,030.3,045.5,0.252,758.5,01.16,0.508
2015-09-17 04:09:00,2022E-3,5C000400,-0724,0825,12161,030.4,045.5,0.253,758.5,01.16,0.508
2015-09-17 04:10:00,2081E-3,5C000400,-0724,0824,12287,030.4,045.5,0.252,758.5,01.16,0.508
2015-09-17 04:11:00,2296E-3,5C000400,-0724,0823,12298,030.4,045.5,0.252,758.5,01.16,0.508
2015-09-17 04:12:00,2085E-3,5C000400,-0724,0823,12121,030.4,045.5,0.252,758.5,01.16,0.508
2015-09-17 04:13:00,2046E-3,5C000400,-0724,0824,12358,030.5,045.5,0.253,758.5,01.16,0.508
2015-09-17 04:14:00,2115E-3,5C000400,-0724,0824,12101,030.5,045.5,0.253,758.5,01.16,0.508
2015-09-17 04:15:00,2171E-3,5C000400,-0724,0825,12247,030.5,045.5,0.253,758.5,01.16,0.508
2015-09-17 04:16:00,2153E-3,5C000400,-0724,0823,12241,030.5,045.5,0.252,758.4,01.16,0.508
2015-09-17 04:17:00,2195E-3,5C000400,-0724,0824,12283,030.5,045.5,0.252,758.5,01.16,0.508
2015-09-17 04:18:00,2125E-3,5C000400,-0724,0825,12229,030.5,045.5,0.252,758.5,01.16,0.508
2015-09-17 04:19:00,2160E-3,5C000400,-0724,0823,12229,030.5,045.5,0.252,758.4,01.16,0.508
2015-09-17 04:20:00,2163E-3,5C000400,-0724,0824,12307,030.6,045.5,0.252,758.5,01.16,0.508